Volver al catálogo

JILIN-1 GAOFEN 03D-08

ActivoCienciaPO
NORAD 54251·PAYLOAD·🇨🇳 China
Este nombre de satélite aún no ha sido confirmado por fuentes oficiales.

Lanzado Nov 16, 2022 desde Jiuquan Satellite Launch Center

Loading…

Próximos Pases (próximas 24 horas)

TLE

ActualizadoSource: Space-Track

Época: Sep 14, 2026, 14:25 UTC

1 54251U 22155A   26257.60109438  .00083505  00000-0  54047-3 0  9999
2 54251  97.6320  50.9727 0002102   5.1950 354.9336 15.75810947213849

Sigue JILIN-1 GAOFEN 03D-08 en tiempo real con AllMySat

Download on the App Store